When you browse on this site, cookies collect data to enhance your experience and personalize the content and advertising you see.
Visit our Privacy Policy to learn more. By continuing to use the site, you agree to this use of cookies and data.
  • In Germany
  • List of Countries
  • For 7 days
  • Water Temperature
  • Satellite Maps
  • Weather Map
  • Weather Widgets
  • user-avatar
    Login

    Hourly Weather Lezhe

    Today, 19 March, Tuesday

    Time Temperature Precipitation Wind Pressure Humidity
    00:00 +10°C° 0 mm 1 mps 738 mmHg 89%
    01:00 +9°C° 0 mm 2 mps 738 mmHg 91%
    02:00 +10°C° 0 mm 1 mps 738 mmHg 90%
    03:00 +10°C° 0 mm 1 mps 738 mmHg 88%
    04:00 +9°C° 0 mm 1 mps 737 mmHg 87%
    05:00 +10°C° 0 mm 1 mps 738 mmHg 84%
    06:00 +10°C° 0 mm 1 mps 738 mmHg 81%
    07:00 +11°C° 0 mm 1 mps 738 mmHg 78%
    08:00 +13°C° 0 mm 1 mps 738 mmHg 69%
    09:00 +15°C° 0 mm 1 mps 738 mmHg 60%
    10:00 +18°C° 0 mm 1 mps 738 mmHg 51%
    11:00 +19°C° 0 mm 1 mps 738 mmHg 48%
    12:00 +20°C° 0 mm 1 mps 737 mmHg 45%
    13:00 +20°C° 0 mm 2 mps 737 mmHg 43%
    14:00 +19°C° 0 mm 2 mps 737 mmHg 46%
    15:00 +18°C° 0 mm 2 mps 737 mmHg 49%
    16:00 +18°C° 0 mm 2 mps 737 mmHg 53%
    17:00 +16°C° 0 mm 2 mps 738 mmHg 60%
    18:00 +15°C° 0 mm 1 mps 738 mmHg 68%
    19:00 +12°C° 0 mm 0 mps 738 mmHg 76%
    20:00 +13°C° 0 mm 1 mps 739 mmHg 75%
    21:00 +13°C° 0 mm 1 mps 739 mmHg 74%
    22:00 +12°C° 0 mm 1 mps 740 mmHg 72%
    23:00 +12°C° 0 mm 1 mps 740 mmHg 72%

    Tomorrow, 20 March, Wednesday

    Time Temperature Precipitation Wind Pressure Humidity
    00:00 +12°C° 0 mm 2 mps 740 mmHg 72%
    01:00 +10°C° 0 mm 2 mps 741 mmHg 72%
    02:00 +10°C° 0 mm 2 mps 741 mmHg 73%
    03:00 +9°C° 0 mm 2 mps 741 mmHg 73%
    04:00 +9°C° 0 mm 3 mps 741 mmHg 73%
    05:00 +9°C° 0 mm 3 mps 741 mmHg 72%
    06:00 +10°C° 0 mm 3 mps 741 mmHg 70%
    07:00 +10°C° 0 mm 3 mps 742 mmHg 69%
    08:00 +12°C° 0 mm 3 mps 742 mmHg 62%
    09:00 +14°C° 0 mm 4 mps 742 mmHg 55%
    10:00 +17°C° 0 mm 4 mps 742 mmHg 49%
    11:00 +18°C° 0 mm 4 mps 742 mmHg 46%
    12:00 +18°C° 0 mm 4 mps 742 mmHg 44%
    13:00 +19°C° 0 mm 4 mps 742 mmHg 41%
    14:00 +19°C° 0 mm 4 mps 742 mmHg 42%
    15:00 +19°C° 0 mm 4 mps 742 mmHg 43%
    16:00 +19°C° 0 mm 4 mps 742 mmHg 43%
    17:00 +16°C° 0 mm 5 mps 742 mmHg 48%
    18:00 +15°C° 0 mm 5 mps 743 mmHg 52%
    19:00 +13°C° 0 mm 5 mps 743 mmHg 56%
    20:00 +12°C° 0 mm 5 mps 744 mmHg 57%
    21:00 +12°C° 0 mm 5 mps 744 mmHg 58%
    22:00 +10°C° 0 mm 5 mps 744 mmHg 59%
    23:00 +10°C° 0 mm 5 mps 745 mmHg 60%

    Day after tomorrow, 21 March, Thursday

    Time Temperature Precipitation Wind Pressure Humidity
    00:00 +9°C° 0 mm 5 mps 745 mmHg 60%
    01:00 +9°C° 0 mm 5 mps 745 mmHg 61%
    02:00 +9°C° 0 mm 5 mps 745 mmHg 61%
    03:00 +8°C° 0 mm 5 mps 745 mmHg 61%
    04:00 +8°C° 0 mm 5 mps 745 mmHg 61%
    05:00 +8°C° 0 mm 5 mps 745 mmHg 61%
    06:00 +8°C° 0 mm 5 mps 745 mmHg 60%
    07:00 +10°C° 0 mm 4 mps 745 mmHg 59%
    08:00 +10°C° 0 mm 5 mps 745 mmHg 55%
    09:00 +13°C° 0 mm 5 mps 745 mmHg 50%
    10:00 +15°C° 0 mm 5 mps 745 mmHg 46%
    11:00 +16°C° 0 mm 5 mps 745 mmHg 44%
    12:00 +17°C° 0 mm 5 mps 745 mmHg 42%
    13:00 +19°C° 0 mm 5 mps 744 mmHg 40%
    14:00 +17°C° 0 mm 5 mps 744 mmHg 41%
    15:00 +17°C° 0 mm 5 mps 744 mmHg 42%
    16:00 +17°C° 0 mm 5 mps 743 mmHg 42%
    17:00 +15°C° 0 mm 5 mps 744 mmHg 46%
    18:00 +14°C° 0 mm 5 mps 744 mmHg 50%
    19:00 +13°C° 0 mm 5 mps 744 mmHg 54%
    20:00 +12°C° 0 mm 5 mps 745 mmHg 57%
    21:00 +11°C° 0 mm 4 mps 745 mmHg 59%
    22:00 +11°C° 0 mm 4 mps 745 mmHg 61%
    23:00 +10°C° 0 mm 4 mps 746 mmHg 62%

    22 March, Friday

    Time Temperature Precipitation Wind Pressure Humidity
    00:00 +10°C° 0 mm 4 mps 746 mmHg 62%
    01:00 +8°C° 0 mm 4 mps 746 mmHg 63%
    02:00 +8°C° 0 mm 4 mps 746 mmHg 63%
    03:00 +8°C° 0 mm 4 mps 746 mmHg 63%
    04:00 +7°C° 0 mm 4 mps 746 mmHg 63%
    05:00 +9°C° 0 mm 3 mps 746 mmHg 62%
    06:00 +9°C° 0 mm 3 mps 746 mmHg 61%
    07:00 +10°C° 0 mm 3 mps 746 mmHg 60%
    08:00 +12°C° 0 mm 3 mps 746 mmHg 54%
    09:00 +14°C° 0 mm 3 mps 746 mmHg 48%
    10:00 +17°C° 0 mm 3 mps 746 mmHg 42%
    11:00 +18°C° 0 mm 3 mps 745 mmHg 40%
    12:00 +19°C° 0 mm 3 mps 745 mmHg 37%
    13:00 +20°C° 0 mm 3 mps 745 mmHg 34%
    14:00 +20°C° 0 mm 3 mps 744 mmHg 35%
    15:00 +20°C° 0 mm 3 mps 744 mmHg 36%
    16:00 +20°C° 0 mm 4 mps 744 mmHg 37%
    17:00 +18°C° 0 mm 3 mps 744 mmHg 42%
    18:00 +16°C° 0 mm 3 mps 745 mmHg 48%
    19:00 +13°C° 0 mm 3 mps 745 mmHg 54%
    20:00 +12°C° 0 mm 3 mps 745 mmHg 54%
    21:00 +12°C° 0 mm 3 mps 745 mmHg 54%
    22:00 +11°C° 0 mm 3 mps 745 mmHg 54%
    23:00 +11°C° 0 mm 3 mps 745 mmHg 55%

    23 March, Saturday

    Time Temperature Precipitation Wind Pressure Humidity
    00:00 +11°C° 0 mm 3 mps 745 mmHg 56%
    01:00 +10°C° 0 mm 3 mps 745 mmHg 57%
    02:00 +10°C° 0 mm 3 mps 745 mmHg 57%
    03:00 +10°C° 0 mm 3 mps 745 mmHg 58%
    04:00 +9°C° 0 mm 3 mps 745 mmHg 58%
    05:00 +10°C° 0 mm 3 mps 745 mmHg 58%
    06:00 +10°C° 0 mm 3 mps 745 mmHg 57%
    07:00 +11°C° 0 mm 3 mps 745 mmHg 57%
    08:00 +14°C° 0 mm 2 mps 745 mmHg 51%
    09:00 +16°C° 0 mm 2 mps 745 mmHg 45%
    10:00 +19°C° 0 mm 2 mps 745 mmHg 39%
    11:00 +20°C° 0 mm 2 mps 745 mmHg 37%
    12:00 +21°C° 0 mm 2 mps 744 mmHg 35%
    13:00 +23°C° 0 mm 2 mps 744 mmHg 33%
    14:00 +21°C° 0 mm 2 mps 744 mmHg 35%
    15:00 +21°C° 0 mm 3 mps 744 mmHg 37%
    16:00 +20°C° 0 mm 3 mps 743 mmHg 39%
    17:00 +19°C° 0 mm 3 mps 743 mmHg 44%
    18:00 +17°C° 0 mm 2 mps 743 mmHg 50%
    19:00 +15°C° 0 mm 2 mps 743 mmHg 55%
    20:00 +15°C° 0 mm 2 mps 744 mmHg 55%
    21:00 +14°C° 0 mm 1 mps 744 mmHg 54%
    22:00 +14°C° 0 mm 1 mps 744 mmHg 53%
    23:00 +14°C° 0 mm 1 mps 744 mmHg 53%

    24 March, Sunday

    Time Temperature Precipitation Wind Pressure Humidity
    00:00 +13°C° 0 mm 1 mps 744 mmHg 53%
    01:00 +13°C° 0 mm 1 mps 744 mmHg 53%
    02:00 +13°C° 0 mm 1 mps 744 mmHg 53%
    03:00 +12°C° 0 mm 1 mps 744 mmHg 54%
    04:00 +12°C° 0 mm 1 mps 744 mmHg 54%
    05:00 +13°C° 0 mm 1 mps 744 mmHg 54%
    06:00 +13°C° 0 mm 1 mps 744 mmHg 54%
    07:00 +14°C° 0 mm 1 mps 744 mmHg 54%
    08:00 +16°C° 0 mm 1 mps 743 mmHg 48%
    09:00 +19°C° 0 mm 1 mps 743 mmHg 42%
    10:00 +22°C° 0 mm 1 mps 743 mmHg 35%
    11:00 +22°C° 0 mm 1 mps 743 mmHg 35%
    12:00 +21°C° 0 mm 2 mps 742 mmHg 34%
    13:00 +22°C° 0 mm 3 mps 742 mmHg 34%
    14:00 +21°C° 0 mm 3 mps 741 mmHg 37%
    15:00 +20°C° 0 mm 2 mps 741 mmHg 40%
    16:00 +20°C° 0 mm 2 mps 740 mmHg 43%
    17:00 +18°C° 0 mm 2 mps 740 mmHg 51%
    18:00 +16°C° 0 mm 1 mps 740 mmHg 59%
    19:00 +13°C° 0 mm 0 mps 740 mmHg 67%
    20:00 +13°C° 0 mm 0 mps 740 mmHg 68%
    21:00 +13°C° 0 mm 0 mps 740 mmHg 69%
    22:00 +12°C° 0 mm 0 mps 740 mmHg 69%
    23:00 +12°C° 0 mm 0 mps 740 mmHg 70%
    Show more